EW3244 Weather Reports


Display with metric or nautical units.
time (UTC)temp
F
wind
direction
speed
MPH
gust
MPH
rain 1hr
in
rain 24hr
in
rain mn
in
humidity
%
barometer
mb
20260906190016 58 67 4.0 9.0 0.00 0.02 0.01 74 1017.0
20260906184508 58 69 3.0 10.0 0.00 0.04 0.01 74 1016.8
20260906183004 59 60 3.0 7.0 0.00 0.04 0.01 73 1016.6
20260906181600 59 53 3.0 7.0 0.00 0.04 0.01 73 1016.4
20260906180111 59 67 5.0 10.0 0.00 0.04 0.01 73 1016.3
20260906174550 60 67 1.0 3.0 0.00 0.04 0.01 71 1016.0
20260906173046 60 80 0.0 2.0 0.00 0.04 0.01 70 1015.8
20260906171542 61 80 0.0 3.0 0.00 0.04 0.01 67 1015.7
20260906170038 62 80 1.0 3.0 0.00 0.04 0.01 65 1015.6
20260906164533 63 67 2.0 6.0 0.00 0.04 0.01 63 1015.6
20260906163029 64 71 2.0 9.0 0.00 0.04 0.01 60 1015.7
20260906161526 65 74 4.0 12.0 0.00 0.04 0.01 59 1015.7
20260906160021 66 90 4.0 10.0 0.00 0.04 0.01 57 1015.6
20260906154517 66 90 5.0 10.0 0.00 0.04 0.01 56 1015.5
20260906153017 66 67 4.0 14.0 0.00 0.04 0.01 60 1015.3
20260906151508 66 88 5.0 12.0 0.00 0.04 0.01 61 1015.4
20260906150003 66 81 4.0 16.0 0.00 0.04 0.01 61 1015.3
20260906144559 66 74 7.0 13.0 0.00 0.04 0.01 59 1015.3
20260906143055 66 73 5.0 16.0 0.00 0.04 0.01 60 1015.2
20260906141549 67 54 7.0 15.0 0.00 0.04 0.01 58 1015.2
20260906140053 67 85 8.0 15.0 0.00 0.04 0.01 57 1015.3
20260906134542 68 81 5.0 10.0 0.00 0.04 0.01 59 1015.1
20260906133036 67 86 7.0 12.0 0.00 0.04 0.01 59 1015.0
20260906131531 67 76 7.0 12.0 0.00 0.04 0.01 59 1015.1
20260906130027 67 88 6.0 13.0 0.00 0.04 0.01 60 1015.0
20260906124522 67 90 6.0 11.0 0.00 0.04 0.01 60 1015.0
20260906123018 66 62 5.0 14.0 0.00 0.04 0.01 63 1014.9
20260906121514 66 93 6.0 13.0 0.00 0.04 0.01 64 1015.0
20260906120009 66 92 6.0 13.0 0.00 0.04 0.01 63 1014.9
20260906114506 65 97 4.0 11.0 0.00 0.04 0.01 64 1014.8
20260906113101 66 66 5.0 10.0 0.00 0.04 0.01 63 1014.6
20260906111556 65 98 4.0 14.0 0.00 0.04 0.01 63 1014.6
20260906110051 65 106 4.0 11.0 0.00 0.04 0.01 66 1014.5
20260906104547 64 53 6.0 14.0 0.00 0.04 0.01 67 1014.4
20260906103044 65 78 6.0 12.0 0.00 0.04 0.01 68 1014.3
20260906101538 64 57 6.0 12.0 0.00 0.04 0.01 68 1014.1
20260906100036 64 84 5.0 12.0 0.00 0.04 0.01 69 1014.1
20260906094529 63 72 4.0 12.0 0.00 0.04 0.01 72 1013.8
20260906093031 62 73 6.0 11.0 0.00 0.04 0.01 73 1013.9
20260906091520 62 89 6.0 10.0 0.00 0.04 0.01 75 1013.9
20260906090016 62 70 6.0 10.0 0.00 0.04 0.01 77 1013.8
20260906084514 61 54 5.0 8.0 0.00 0.06 0.01 79 1013.6
20260906083107 60 69 4.0 9.0 0.00 0.06 0.01 78 1013.5
20260906081502 59 60 4.0 10.0 0.00 0.06 0.01 73 1013.4
20260906080100 58 52 5.0 7.0 0.00 0.06 0.01 47 1013.3
20260906074558 57 62 5.0 9.0 0.00 0.06 0.01 12 1013.2
20260906073049 56 68 5.0 8.0 0.00 0.06 0.01 4 1013.0
20260906071544 55 53 5.0 8.0 0.00 0.06 0.01 2 1012.9
20260906070041 55 61 3.0 7.0 0.00 0.06 0.01 1 1012.7
20260906064537 54 43 4.0 8.0 0.00 0.06 0.01 3 1012.5
20260906063031 53 47 4.0 8.0 0.00 0.06 0.01 4 1012.3
20260906061526 53 57 3.0 6.0 0.00 0.06 0.01 6 1012.3
20260906060024 52 50 4.0 7.0 0.00 0.06 0.01 7 1012.2
20260906054518 52 40 4.0 7.0 0.00 0.06 0.01 8 1012.1
20260906053020 51 41 2.0 5.0 0.00 0.06 0.01 9 1011.9
20260906051509 51 43 1.0 4.0 0.00 0.06 0.01 11 1011.6
20260906050004 50 38 2.0 5.0 0.00 0.06 0.01 12 1011.4
20260906044600 50 38 1.0 4.0 0.00 0.06 0.01 14 1011.2
20260906043057 49 45 0.0 2.0 0.00 0.06 0.01 16 1011.0
20260906041555 48 45 0.0 2.0 0.00 0.06 0.01 17 1010.9
20260906040053 48 46 0.0 1.0 0.00 0.06 0.01 18 1010.6
20260906034552 48 45 0.0 1.0 0.00 0.06 0.01 18 1010.5
20260906033148 48 45 0.0 1.0 0.00 0.06 0.01 19 1010.2
20260906031549 48 45 0.0 2.0 0.00 0.06 0.01 19 1010.0
20260906030051 48 45 0.0 1.0 0.00 0.06 0.01 20 1010.0
20260906024543 49 45 0.0 1.0 0.00 0.06 0.01 20 1009.7
20260906023046 48 46 0.0 1.0 0.00 0.06 0.01 21 1009.6
20260906021540 48 45 0.0 1.0 0.00 0.06 0.01 23 1009.5
20260906020039 48 46 0.0 1.0 0.01 0.06 0.01 24 1009.4
20260906014542 48 45 0.0 1.0 0.01 0.06 0.01 26 1009.2
20260906013033 46 45 0.0 0.0 0.01 0.06 0.01 31 1008.9
20260906011530 47 46 0.0 0.0 0.01 0.06 0.01 30 1008.7
20260906010028 48 46 0.0 1.0 0.00 0.05 0.00 30 1008.5
20260906004525 47 45 0.0 0.0 0.00 0.05 0.00 33 1008.3
20260906003023 47 45 0.0 1.0 0.00 0.05 0.00 35 1008.1
20260906001520 48 46 0.0 2.0 0.00 0.05 0.00 33 1007.9
20260906000018 48 46 0.0 1.0 0.00 0.05 0.00 34 1007.8
20260905234514 48 45 0.0 1.0 0.00 0.05 0.00 35 1007.5
20260905233012 48 46 0.0 1.0 0.00 0.05 0.00 37 1007.3
20260905231510 48 46 0.0 2.0 0.00 0.05 0.00 38 1007.1
20260905230007 48 81 0.0 0.0 0.00 0.05 0.00 41 1007.0
20260905224512 48 81 0.0 0.0 0.00 0.05 0.00 43 1006.8
20260905223003 48 81 0.0 0.0 0.00 0.05 0.00 44 1006.5
20260905221600 48 81 0.0 0.0 0.00 0.05 0.00 48 1006.3
20260905220057 48 81 0.0 0.0 0.00 0.05 0.00 51 1006.2
20260905214555 49 81 0.0 1.0 0.00 0.05 0.05 50 1005.9
20260905213050 50 81 0.0 1.0 0.00 0.05 0.05 50 1005.7
20260905211548 50 81 0.0 2.0 0.00 0.05 0.05 52 1005.5
20260905210045 51 81 0.0 2.0 0.00 0.05 0.05 54 1005.2
20260905204543 51 81 0.0 1.0 0.00 0.05 0.05 55 1004.9
20260905203041 52 81 0.0 2.0 0.00 0.05 0.05 55 1004.6
20260905201539 52 52 0.0 1.0 0.00 0.05 0.05 58 1004.3
20260905200041 53 52 0.0 0.0 0.02 0.05 0.05 59 1004.1
20260905194533 54 50 1.0 2.0 0.03 0.05 0.05 60 1003.8
20260905193033 54 43 0.0 2.0 0.03 0.05 0.05 61 1003.7
20260905191530 54 43 0.0 4.0 0.02 0.04 0.04 63 1003.5
20260905190037 54 9 2.0 4.0 0.02 0.03 0.03 67 1003.1